Regional Weather Roundup
Issued by NWS Pendleton, OR

Home | Current Version | Previous Version | Text Only | Print | Product List | Glossary On
Versions: 1 2 3 4 5 6 7 8 9 10 11 12 13 14 15 16 17 18 19 20 21 22 23 24 25 26 27 28 29 30 31 32 33 34 35 36 37 38 39 40 41 42 43 44 45 46 47 48 49 50
580
ASUS46 KPDT 262025
RWRPDT
PENDLETON REGIONAL WEATHER ROUNDUP
NATIONAL WEATHER SERVICE PENDLETON OREGON
100 PM PDT FRI AUG 26 2016

NOTE: FAIR INDICATES FEW OR NO CLOUDS BELOW 12,000 FEET WITH NO
SIGNIFICANT WEATHER AND/OR OBSTRUCTIONS TO VISIBILITY.

# INDICATES UNOFFICIAL STATION AND DATA

WAZ520-262110-
EAST SLOPES OF WASHINGTON CASCADES

CITY            SKY/WX      TMP DP  RH  WIND    PRES   REMARKS
#CLE ELUM HS    N/A         85  43  23  W6      29.89F
#CLE ELUM 2NW   N/A         83  40  22  SW2     N/A
#GLENWOOD       N/A         85  49  29  CALM    29.88F
#MANASTASH CYN  N/A         80  49  34  W1      29.96F
#NELSON 3SW     N/A         83  45  26  CALM    30.02F
#NILE           N/A         84  44  25  N1      29.14F
#RONALD 2NW     N/A         82  N/A N/A NW1     29.86F
#TEANAWAY 4NE   N/A         85  50  30  SW2     N/A
#TROUT LAKE 1NE N/A         84  42  23  CALM    29.87F
#TROUT LAKE 1E  N/A         88  49  26  CALM    29.92F
$$

WAZ521-262110-
SIMCOE HIGHLANDS

CITY            SKY/WX      TMP DP  RH  WIND    PRES   REMARKS
#CENTERVILLE 1SWN/A         84  42  23  SW7     29.84F
#GOLDENDALE 1NE N/A         85  25  11  S1      N/A
#GOLDENDALE 4W  N/A         87  48  26  S1      29.97F
#GOODNOE HILLS  N/A         92  40  16  W6      29.83F HX 88
#LYLE 6NE       N/A         86  40  20  W7      29.83F
$$

WAZ026-262110-
KITTITAS VALLEY

CITY            SKY/WX      TMP DP  RH  WIND    PRES   REMARKS
ELLENSBURG AP   LGT RAIN    88  44  22  VRB5    29.94F
#ELLENSBURG CWU N/A         85  46  26  E1      29.80F
#ELLENSBURG 3NE N/A         83  48  30  CALM    29.93F
#ELLENSBURG     N/A         93  44  19  NE1     N/A    HX 89
#ELLENSBURG 1E  N/A         87  N/A N/A NE1     N/A
#KITTITAS 4N    N/A         89  52  28  SW2     29.89F
#KITTITAS 3S    N/A         84  53  34  CALM    29.84F
#THORP 6N       N/A         82  47  29  SE7     29.86F
$$

WAZ027-262110-
YAKIMA VALLEY

CITY            SKY/WX      TMP DP  RH  WIND    PRES   REMARKS
SUNNYSIDE AP    N/A         84  49  30  CALM    29.91F
YAKIMA AIRPORT  SUNNY       90  44  20  S6      29.92F HX 86
YAKIMA-VAGABOND N/A         87  42  21  SW5     29.91F
#DONALD 2NE     N/A         88  13   6  SE3     28.76F
#GRANDVIEW      N/A         84  47  28  CALM    29.88F
#MABTON         N/A         84  53  34  N1      29.89F
#NACHES 2SW     N/A         85  56  37  S2      29.98F
#TERRACE HTS    N/A         86  51  30  S2      29.83F
#TOPPENISH      N/A         86  50  29  CALM    29.79F
#WEST VALLEY    N/A         86  49  28  E2      29.84F
#WHITE SWAN 5E  N/A         87  49  27  E3      29.87F
#WILEY CITY 3W  N/A         90  33  13  CALM    29.90F HX 86
$$

WAZ028-262110-
LOWER COLUMBIA BASIN...WASHINGTON

CITY            SKY/WX      TMP DP  RH  WIND    PRES   REMARKS
HANFORD         CLOUDY      89  42  19  N5      29.90F
PASCO           SUNNY       85  45  25  VRB3    29.90F
PROSSER AWOS    N/A         88  46  23  CALM    29.93F
RICHLAND AWOS   SUNNY       90  46  22  NW5     29.88F HX 87
#BENTON CITY    N/A         86  47  26  CALM    29.78F
#CONNELL 5N     N/A         83  48  30  NW7     29.87F
#ELTOPIA 6NW    N/A         84  53  34  CALM    28.90F
#KAHLOTUS       N/A         82  46  28  N14     29.85F
#KENNEWICK 3S   N/A         86  52  31  CALM    29.88F
#PATERSON       N/A         84  43  24  SW3     29.86F
#SAGEMOOR 2W    N/A         83  55  38  N1      29.73F
#TOUCHET 2S     N/A         90  47  23  W3      29.85F HX 87
#WEST PASCO     N/A         86  53  32  N1      29.87F
$$

WAZ029-262110-
FOOTHILLS OF THE BLUES...WASHINGTON

CITY            SKY/WX      TMP DP  RH  WIND    PRES   REMARKS
WALLA WALLA AP  SUNNY       86  33  15  W7      29.92F
#CLYDE 6NW      N/A         84  41  22  W7      29.85F
#DAYTON SCHOOL  N/A         85  37  18  N6      29.93F
#LOWDEN 2SE     N/A         87  48  26  W3      29.85F
#PLEASANT VIEW 1N/A         87  38  18  W3      29.88F
#PRESCOTT       N/A         88  46  23  W2      29.85F
#WHITMAN COLLEGEN/A         85  41  21  W2      29.90F
#WAITSBURG 8N   N/A         92  32  12  E6      29.88F HX 88
#WHITMAN MISSIONN/A         86  45  24  CALM    29.87F
$$

WAZ030-262110-
BLUE MOUNTAINS...WASHINGTON

CITY            SKY/WX      TMP DP  RH  WIND    PRES   REMARKS
#DIXIE 5SE      N/A         77  37  24  NW9     29.94F
$$

ORZ009-041-WAZ024-262110-
COLUMBIA RIVER GORGE

CITY            SKY/WX      TMP DP  RH  WIND    PRES   REMARKS
HOOD RIVER AP   PTCLDY      88  45  23  N3      29.89F
THE DALLES AP   SUNNY       89  40  18  CALM    29.88F
#ARLINGTON AIRPON/A         87  44  22  N5      29.87F
#LYLE           N/A         88  48  25  SW2     29.86F
#MARYHILL 2W    N/A         N/A N/A N/A CALM    N/A
#MOSIER 1S      N/A         90  26  10  CALM    29.88F HX 86
#MURDOCK        N/A         90  42  19  W2      29.82F HX 86
#RUFUS DOT      N/A         82  49  32  NW2     N/A
#SMITHVILLE     N/A         90  39  17  SW2     29.88F HX 86

$$

ORZ510-262110-
NORTH CENTRAL OREGON

CITY            SKY/WX      TMP DP  RH  WIND    PRES   REMARKS
#ANTELOPE       N/A         81  42  25  S5      29.73F
#COW CYN RST AREN/A         81  N/A N/A SE5     N/A
#DUFUR 9E       N/A         81  37  21  SE2     29.90F
#GRASS VALLEY 1SN/A         85  37  18  S1      29.93F
#KENT DOT       N/A         83  43  24  N3      N/A
#MAUPIN SCHOOL  N/A         88  42  20  CALM    29.94F
#SHANIKO 5WSW   N/A         78  41  27  N8      N/A
#TYGH VALLEY 2NEN/A         85  45  25  N3      29.86F
#WAPANITIA AIRPON/A         86  38  18  CALM    29.89F
#WASCO DOT      N/A         90  50  26  SW2     N/A    HX 87
#WASCO 5NE      N/A         90  45  21  CALM    29.86F HX 86
$$

ORZ511-262110-
CENTRAL OREGON

CITY            SKY/WX      TMP DP  RH  WIND    PRES   REMARKS
BEND AIRPORT    N/A         N/A N/A N/A MISG    N/A
MADRAS AIRPORT  SUNNY       88  30  12  CALM    30.01F
PRINEVILLE AP   SUNNY       81  28  14  N7      30.02F
REDMOND AIRPORT SUNNY       82  26  13  VRB3    30.02F
#ASHWOOD SCHOOL N/A         82  33  17  NE3     29.95F
#BEND 1SW       N/A         78  35  21  E3      N/A
#BEND-AWBREY    N/A         77  35  22  NE3     29.89F
#CULVER         N/A         80  37  21  N1      29.83F
#CULVER 8W      N/A         82  20  10  W2      30.01F
#LAKE BILLY CHINN/A         80  N/A N/A W6      30.02F
#MADRAS 4S      N/A         80  19  10  NW3     30.06F
#POWELL BUTTE 3EN/A         76  38  25  W5      N/A
#POWELL BUTTE   N/A         82  42  24  N3      29.90F
#PRINEVILLE 3N  N/A         79  42  27  W8      29.96F
#WARM SPRINGS   N/A         88  42  20  CALM    29.93F

$$


ORZ509-262110-
EAST SLOPES OF OREGON CASCADES

CITY            SKY/WX      TMP DP  RH  WIND    PRES   REMARKS
SISTERS AWOS    N/A         77  30  18  CALM    30.01F
#BLUE BOX PASS  N/A         79  N/A N/A S1      N/A
#CAMP SHERMAN   N/A         88  33  14  CALM    29.95F
#LA PINE 4NW    N/A         75  38  26  CALM    29.94F
#LAVA BUTTE DOT N/A         77  42  29  CALM    N/A
#SISTERS AIRPOR N/A         79  42  27  N5      30.17S
#SISTERS ODOT   N/A         77  N/A N/A NW3     N/A
#SISTERS 3N     N/A         78  35  21  SW2     29.96S
#SUNRIVER       N/A         77  32  19  SW3     29.92F
#TUMALO 3W      N/A         77  32  19  NE3     29.76F
#WANOGA BUTTE D N/A         64  25  23  SE8     N/A

$$

ORZ044-262110-
LOWER COLUMBIA BASIN...OREGON

CITY            SKY/WX      TMP DP  RH  WIND    PRES   REMARKS
HERMISTON       SUNNY       87  41  20  VRB5    29.91F
#BOARDMAN SCHOOLN/A         83  46  27  W1      29.89F
#ECHO 8SW       N/A         86  46  25  CALM    29.92F
#I-84 EX 198 DOTN/A         83  53  36  E7      N/A
#UMATILLA       N/A         87  47  25  CALM    29.81F
$$

ORZ507-262110-
NORTHERN FOOTHILLS OF THE BLUES

CITY            SKY/WX      TMP DP  RH  WIND    PRES   REMARKS
PENDLETON AIRPT SUNNY       85  35  17  MISG    29.94F
#ADAMS 3WNW     N/A         86  38  18  W3      29.86F
#ATHENA         N/A         85  39  20  W1      29.90F
#CAYUSE         N/A         84  39  20  NW1     29.85F
#HELIX SCHOOL   N/A         84  39  20  N2      29.87F
#HELIX 3N       N/A         84  37  19  N1      29.93F
#HOLDMAN 5SE    N/A         85  43  23  W2      29.93F
#HOLDMAN 6E     N/A         85  41  21  E7      29.68F
#M-F GROVE ELEM N/A         85  38  19  W2      29.89F
#M-FREEWATER 5SEN/A         83  50  32  CALM    29.91F
#PDT AQUATIC CTRN/A         84  44  25  CALM    29.96F
#PDT SUNRIDGE   N/A         87  40  19  W3      29.92F
#PENDLETON 7NW  N/A         83  52  34  CALM    31.89S
#PILOT ROCK 1S  N/A         84  40  21  N2      29.95F
#PILOT ROCK     N/A         84  40  21  E6      29.93F
#TUTUILLA       N/A         86  38  18  CALM    29.90F
#UMAPINE 2E     N/A         86  50  29  W1      29.87F
#WESTON SCHOOL  N/A         82  34  18  E5      29.82F

$$

ORZ508-262110-
SOUTHERN FOOTHILLS OF THE BLUES

CITY            SKY/WX      TMP DP  RH  WIND    PRES   REMARKS
LEXINGTON       SUNNY       86  34  16  N7      29.97F
#AJAX           N/A         83  34  17  N7      27.72F
#CONDON SCHOOL  N/A         80  38  22  E3      29.96F
#CONDON 5W      N/A         78  32  19  NE3     30.00F
#FOSSIL SCHOOL  N/A         83  34  17  N3      29.94F
#HEPPNER EOC    N/A         85  38  19  NW3     29.80F
#HEPPNER 4NE    N/A         79  36  21  CALM    29.87F
#LEXINGTON 2SE  N/A         88  41  19  N8      29.88F
#MIKKALO        N/A         89  37  16  E1      30.07F
#OLEX 4N        N/A         85  37  18  NE1     29.91F
#RUGGS 5NE      N/A         86  -12  2  N7      30.17F
#RUGGS 2SW      N/A         81  36  20  N6      29.89F

$$

ORZ502-503-262110-
BLUE MOUNTAINS

CITY            SKY/WX      TMP DP  RH  WIND    PRES   REMARKS
MEACHAM         SUNNY       79  25  14  VRB5    30.04F
#BATTLE MTN DOT N/A         75  41  29  N3      N/A
#CUTSFORTH PARK N/A         77  35  22  W1      29.83F
#HARDMAN 10S    N/A         76  34  22  N2      29.99F
#HEPPNER 15SE   N/A         81  36  20  N2      25.59F
#LADD CYN SMT   N/A         78  44  30  NW7     N/A
#LADD CREEK ODOTN/A         80  47  31  N2      N/A
#LONG CREEK HS  N/A         76  37  24  W7      30.02F
#N POWDER DOT   N/A         80  48  33  N8      N/A
#PIKES PEAK     N/A         75  38  26  CALM    27.99S
#TOLLGATE       N/A         70  38  31  N3      29.96S
#TROY SCHOOL    N/A         90  42  19  SE2     29.70F HX 86
#UKIAH          N/A         78  37  23  W3      29.83F
#WESTON 4E      N/A         80  38  22  NW1     29.82F
$$

ORZ505-262110-
JOHN DAY BASIN

CITY            SKY/WX      TMP DP  RH  WIND    PRES   REMARKS
JOHN DAY        SUNNY       82  28  14  SW7     30.03F
#DAYVILLE SCHOOLN/A         81  33  18  SE2     29.95F
#MITCHELL       N/A         82  45  27  SW1     30.16F
#MITCHELL 8NW   N/A         77  32  19  N1      30.06F
#MONUMENT HS    N/A         85  34  16  VRB5    29.85F
#MT. VERNON 5SE N/A         77  32  19  NE3     30.00F
#SPRAY SCHOOL   N/A         88  N/A N/A CALM    N/A
$$

ORZ506-262110-
OCHOCO AND JOHN DAY HIGHLANDS

CITY            SKY/WX      TMP DP  RH  WIND    PRES   REMARKS
#BUCK CREEK DOT N/A         75  30  19  NW8     N/A
#HORSE RIDGE DO N/A         74  26  17  W6      N/A
#KEYES SMT DOT  N/A         75  31  20  CALM    N/A
#PAULINA SCHOOL N/A         77  27  16  S2      N/A
#PINE MTN OBS   N/A         66  28  24  NW6     N/A
#PRAIRIE CITY   N/A         83  34  17  W2      30.18
#SENECA         N/A         74  N/A N/A NW2     N/A
#SENECA 9NW     N/A         74  30  20  CALM    29.88F
$$

ORZ049-262110-
GRANDE RONDE VALLEY

CITY            SKY/WX      TMP DP  RH  WIND    PRES   REMARKS
LA GRANDE       SUNNY       84  34  17  N7      29.97F
#COVE           N/A         82  45  27  N2      30.00F
#COVE SCHOOL    N/A         82  45  27  CALM    30.00F
#COVE 6NW       N/A         81  37  21  NW7     29.85F
#ELGIN 3N       N/A         84  37  19  NE1     29.94F
#ELGIN 1E       N/A         82  38  21  W5      N/A
#IMBLER SCHOOL  N/A         79  32  18  CALM    29.94F
#ISLAND CITY 4N N/A         92  48  22  CALM    29.87F HX 89
#LADD CYN DOT   N/A         81  49  33  N3      N/A
#LA GRANDE ELEM N/A         81  33  18  SE1     29.99F
#UNION 1S       N/A         81  39  22  W5      29.78F
$$

ORZ050-262110-
WALLOWA COUNTY

CITY            SKY/WX      TMP DP  RH  WIND    PRES   REMARKS
JOSEPH AIRPORT  SUNNY       79  25  14  CALM    30.04F
#IMNAHA SCHOOL  N/A         57  41  55  N3      30.20S
#IMNAHA 10S     N/A         83  34  17  NE3     29.97F
#JOSEPH 3N      N/A         75  31  20  W5      30.06F
#JOSEPH 3W      N/A         72  28  19  E5      29.92F
#LOSTINE        N/A         79  33  19  CALM    29.69F
#LOSTINE 3SE    N/A         79  32  18  S2      29.99F
#MT HOWARD 8000 N/A         55  27  34  W5      30.26F
#PROMISE 1S     N/A         76  41  28  N5      29.98F
#WALLOWA SCHOOL N/A         83  35  18  CALM    29.96F



$$



USA.gov is the U.S. government's official web portal to all federal, state and local government web resources and services.